Hourly Data Report for October 30, 2013

All times are specified in Local Standard Time (LST). Add 1 hour to adjust for Daylight Saving Time where and when it is observed.

KAMLOOPS A
BRITISH COLUMBIA

50°42'09.000" N
120°26'55.000" W
345.30 m
1163781
71887
YKA

Download Data

Hourly Data (October 2013)
Hourly Data Report for October 30, 2013
Temp Definition
°C
Dew Point Temp Definition
°C
Rel Hum Definition
%
Wind Dir Definition
10's deg

Wind Spd Definition
km/h
Visibility Definition
km
Stn Press Definition
kPa
Hmdx Definition


Wind Chill Definition


Weather Definition


TIME
00:00 Legend Double Dagger -1.7 -4.9 79 5 5 64.4 97.53   -4 LegendNANA
01:00 Legend Double Dagger -2.2 -4.7 83 8 8 64.4 97.57   -5 Mainly Clear
02:00 Legend Double Dagger -0.8 -3.5 82 11 5 64.4 97.62   -2 LegendNANA
03:00 Legend Double Dagger -0.8 -3.3 83 9 7 64.4 97.60   -3 LegendNANA
04:00 Legend Double Dagger -0.5 -3.0 83 7 8 64.4 97.59   -3 Mostly Cloudy
05:00 Legend Double Dagger -0.4 -3.3 81 7 5 64.4 97.59   -2 LegendNANA
06:00 Legend Double Dagger -0.5 -3.0 83 8 6 64.4 97.58   -3 LegendNANA
07:00 Legend Double Dagger 0.0 -2.6 83 5 6 64.4 97.65   -2 Cloudy
08:00 Legend Double Dagger 0.9 -2.3 79 10 11 64.4 97.66     LegendNANA
09:00 Legend Double Dagger 1.8 -2.7 72 10 3 64.4 97.68     LegendNANA
10:00 Legend Double Dagger 3.0 -3.6 62 10 6 64.4 97.67     Mostly Cloudy
11:00 Legend Double Dagger 4.4 -2.5 61 22 1 64.4 97.65     LegendNANA
12:00 Legend Double Dagger 6.2 -1.2 59 8 9 64.4 97.58     LegendNANA
13:00 Legend Double Dagger 7.2 -1.0 56 9 7 64.4 97.43     Mainly Clear
14:00 Legend Double Dagger 8.7 -1.1 50 8 5 64.4 97.38     LegendNANA
15:00 Legend Double Dagger 9.1 -0.8 50 8 5 64.4 97.38     LegendNANA
16:00 Legend Double Dagger 8.8 -0.5 52 16 9 64.4 97.34     Mostly Cloudy
17:00 Legend Double Dagger 8.1 -0.6 54 13 22 64.4 97.31     LegendNANA
18:00 Legend Double Dagger 7.7 -0.5 56 12 20 64.4 97.29     LegendNANA
19:00 Legend Double Dagger 6.2 -0.5 62 9 14 64.4 97.24     Mainly Clear
20:00 Legend Double Dagger 6.8 0.3 63 13 14 64.4 97.23     LegendNANA
21:00 Legend Double Dagger 6.4 0.3 65 8 10 64.4 97.21     LegendNANA
22:00 Legend Double Dagger 6.4 0.1 64 9 12 64.4 97.21     Cloudy
23:00 Legend Double Dagger 3.6 -0.8 73 26 7 64.4 97.25     LegendNANA

Notes on Data Quality.

Legend

  • E = Estimated
  • M = Missing
  • NA = Not Available
  • ‡ = Partner data that is not subject to review by the National Climate Archives
Date modified: